Location: Krakow
(50.0830°N, 19.9170°E)
Time: 16:38:31
(UTC+02:00)

Envisat - Visible Passes

Search period start: 17 July 2024 00:00
Search period end: 27 July 2024 00:00
Orbit: 762 x 764 km, 98.3° (Epoch: 17 July)

Date Brightness Start Highest point End Pass type
(mag) Time Alt. Az. Time Alt. Az. Time Alt. Az.
17 Jul 5.7 02:20:15 10° ENE 02:21:12 10° E 02:22:10 10° E visible
17 Jul 3.3 03:56:02 10° NNE 04:01:08 70° ESE 04:06:10 10° S visible
18 Jul 4.4 03:18:55 10° NNE 03:23:33 34° E 03:28:09 10° SSE visible
19 Jul 5.4 02:42:27 10° NE 02:45:47 17° E 02:49:06 10° SE visible
20 Jul 3.7 03:42:53 10° NNE 03:47:54 55° E 03:52:51 10° S visible
21 Jul 4.8 03:05:57 10° NE 03:10:15 27° E 03:14:32 10° SSE visible
22 Jul 5.5 02:29:57 10° ENE 02:32:24 13° E 02:34:51 10° ESE visible
22 Jul 3.1 04:07:02 10° NNE 04:12:09 86° ESE 04:17:14 10° SSW visible
23 Jul 4.1 03:29:48 10° NNE 03:34:38 43° E 03:39:27 10° S visible
24 Jul 5.1 02:53:04 10° NE 02:56:55 21° E 03:00:46 10° SE visible
25 Jul 5.8 02:18:33 10° ENE 02:18:59 10° E 02:19:26 10° E visible
25 Jul 3.3 03:53:51 10° NNE 03:58:56 68° ESE 04:03:58 10° S visible
26 Jul 4.4 03:16:45 10° NNE 03:21:21 33° E 03:25:55 10° SSE visible
